Ravenna, OH

10:45 AM EDT on March 26, 2017 (GMT -0400)
Ravenna

Weather History for KPOV - March, 2013

Change the Weather History Date:

Thursday, March 7, 2013

  Actual Average (KCAK) Record (KCAK)
Temperature  
Mean Temperature 34 °F -  
Max Temperature 39 °F 42 °F 76 °F (1983)
Min Temperature 29 °F 26 °F 3 °F (1913)
Degree Days  
Heating Degree Days 31    
Moisture  
Dew Point 29 °F    
Average Humidity 85    
Maximum Humidity 100    
Minimum Humidity 61    
Precipitation  
Precipitation 0.00 in - - ()
Sea Level Pressure  
Sea Level Pressure 30.22 in    
Wind  
Wind Speed 6 mph (NW)    
Max Wind Speed 14 mph    
Max Gust Speed 17 mph    
Visibility 9 miles    
Events Rain    
Averages and records for this station are not official NWS values.
T = Trace of Precipitation, MM = Missing Value Source: NWS Daily Summary

Daily Weather History Graph

Daily Weather History Graph

Search for Another Location

Airport or City:

Trip Planner

Search our weather history database for the weather conditions in past years. The results will help you decide how hot, cold, wet, or windy it might be!

Date:

Astronomy

Mar. 07, 2013 Rise Set
Actual Time 6:49 AM EST 6:23 PM EST
Civil Twilight 6:21 AM EST 6:50 PM EST
Nautical Twilight 5:50 AM EST 7:22 PM EST
Astronomical Twilight 5:17 AM EST 7:54 PM EST
Moon 3:50 AM EST (3/7) 2:07 PM EST (3/7)
Length of Visible Light 12h 28m
Length of Day
11h 33m
Waning Crescent, 20% of the Moon is Illuminated
Mar 7
Waning Crescent
Mar 11
New
Mar 19
First Quarter
Mar 27
Full
Apr 3
Last Quarter

Hourly Weather History & Observations

Time (EST) Temp. Windchill Dew Point Humidity Pressure Visibility Wind Dir Wind Speed Gust Speed Precip Events Conditions
12:16 AM 32.0 °F 27.5 °F 29.3 °F 90% 30.12 in 10.0 mi WNW 4.6 mph - N/A   Overcast
12:36 AM 32.0 °F 27.5 °F 29.3 °F 90% 30.13 in 10.0 mi WNW 4.6 mph - N/A   Overcast
12:56 AM 32.0 °F 26.4 °F 29.1 °F 89% 30.13 in 10.0 mi WNW 5.8 mph - N/A   Overcast
12:57 AM 32.0 °F 27.5 °F 29.3 °F 90% 30.13 in 10.0 mi WNW 4.6 mph - N/A   Overcast
1:25 AM 32.0 °F 25.6 °F 28.4 °F 87% 30.13 in 10.0 mi WNW 6.9 mph - N/A   Overcast
1:45 AM 32.0 °F 26.4 °F 30.2 °F 93% 30.13 in 10.0 mi WNW 5.8 mph - N/A   Overcast
2:25 AM 32.0 °F 27.5 °F 30.2 °F 93% 30.13 in 7.0 mi WNW 4.6 mph - N/A   Overcast
2:45 AM 32.0 °F 28.7 °F 32.0 °F 100% 30.14 in 7.0 mi WNW 3.5 mph - N/A   Overcast
3:05 AM 32.0 °F 26.4 °F 32.0 °F 100% 30.14 in 7.0 mi WNW 5.8 mph - N/A   Overcast
3:25 AM 32.0 °F 28.7 °F 32.0 °F 100% 30.14 in 7.0 mi WNW 3.5 mph - N/A   Overcast
3:45 AM 32.0 °F 26.4 °F 32.0 °F 100% 30.14 in 10.0 mi NW 5.8 mph - N/A   Overcast
4:05 AM 32.0 °F - 32.0 °F 100% 30.15 in 10.0 mi Calm Calm - N/A   Overcast
4:25 AM 32.0 °F 27.5 °F 32.0 °F 100% 30.15 in 10.0 mi NW 4.6 mph - N/A   Overcast
4:45 AM 32.0 °F 28.7 °F 32.0 °F 100% 30.15 in 7.0 mi WNW 3.5 mph - N/A   Overcast
5:05 AM 32.0 °F 26.4 °F 32.0 °F 100% 30.15 in 7.0 mi WNW 5.8 mph - N/A   Overcast
5:25 AM 32.0 °F 27.5 °F 32.0 °F 100% 30.16 in 7.0 mi WNW 4.6 mph - N/A   Overcast
5:45 AM 32.0 °F 27.5 °F 32.0 °F 100% 30.17 in 7.0 mi WNW 4.6 mph - N/A   Overcast
6:05 AM 30.2 °F 26.7 °F 30.2 °F 100% 30.17 in 7.0 mi WNW 3.5 mph - N/A   Overcast
6:25 AM 30.2 °F 25.4 °F 30.2 °F 100% 30.18 in 7.0 mi WNW 4.6 mph - N/A   Overcast
6:45 AM 30.2 °F 26.7 °F 30.2 °F 100% 30.19 in 7.0 mi West 3.5 mph - N/A   Overcast
7:05 AM 32.0 °F 26.4 °F 32.0 °F 100% 30.19 in 7.0 mi WNW 5.8 mph - N/A   Overcast
7:25 AM 32.0 °F 26.4 °F 32.0 °F 100% 30.20 in 5.0 mi WNW 5.8 mph - N/A   Overcast
7:45 AM 32.0 °F 27.5 °F 32.0 °F 100% 30.21 in 5.0 mi WNW 4.6 mph - N/A   Overcast
8:05 AM 32.0 °F 26.4 °F 32.0 °F 100% 30.21 in 5.0 mi WNW 5.8 mph - N/A   Overcast
8:25 AM 32.0 °F 24.8 °F 32.0 °F 100% 30.22 in 7.0 mi West 8.1 mph - N/A   Overcast
8:55 AM 33.3 °F 27.1 °F 33.1 °F 99% 30.22 in 7.0 mi WNW 6.9 mph - N/A   Overcast
8:56 AM 33.3 °F 26.4 °F 33.1 °F 99% 30.22 in 7.0 mi West 8.1 mph - N/A   Overcast
9:16 AM 33.8 °F 25.8 °F 32.5 °F 95% 30.22 in 7.0 mi West 10.4 mph - N/A   Overcast
9:36 AM 34.0 °F 27.2 °F 30.0 °F 85% 30.22 in 7.0 mi WNW 8.1 mph - N/A   Overcast
9:56 AM 34.9 °F 28.3 °F 30.0 °F 82% 30.24 in 7.0 mi NW 8.1 mph - N/A   Overcast
10:16 AM 35.2 °F 29.5 °F 30.0 °F 81% 30.24 in 7.0 mi WNW 6.9 mph - N/A   Overcast
10:36 AM 35.4 °F 27.8 °F 29.5 °F 79% 30.24 in 10.0 mi West 10.4 mph - N/A   Overcast
10:55 AM 35.8 °F 27.8 °F 29.5 °F 78% 30.24 in 7.0 mi WNW 11.5 mph - N/A   Overcast
11:16 AM 36.9 °F 30.1 °F 29.8 °F 76% 30.24 in 7.0 mi WNW 9.2 mph - N/A   Overcast
11:36 AM 36.7 °F 28.9 °F 28.4 °F 72% 30.24 in 10.0 mi West 11.5 mph - N/A   Overcast
11:55 AM 37.0 °F 29.3 °F 29.1 °F 73% 30.25 in 10.0 mi WNW 11.5 mph 16.1 mph N/A   Overcast
12:16 PM 38.3 °F 31.4 °F 28.9 °F 69% 30.25 in 10.0 mi WNW 10.4 mph 16.1 mph N/A   Overcast
12:36 PM 36.9 °F 30.1 °F 28.2 °F 71% 30.25 in 10.0 mi WNW 9.2 mph 16.1 mph N/A   Overcast
12:56 PM 37.4 °F 30.3 °F 28.6 °F 70% 30.25 in 10.0 mi WNW 10.4 mph 17.3 mph N/A   Overcast
1:16 PM 37.4 °F 31.4 °F 29.5 °F 73% 30.24 in 10.0 mi NNW 8.1 mph - N/A   Overcast
1:36 PM 37.6 °F 31.0 °F 28.6 °F 70% 30.24 in 10.0 mi NNW 9.2 mph - N/A   Overcast
1:55 PM 39.2 °F 32.5 °F 29.8 °F 69% 30.23 in 10.0 mi WNW 10.4 mph - N/A   Mostly Cloudy
2:16 PM 38.7 °F 32.4 °F 28.9 °F 68% 30.23 in 10.0 mi NW 9.2 mph - N/A   Mostly Cloudy
2:36 PM 39.6 °F 33.0 °F 27.1 °F 61% 30.23 in 10.0 mi WNW 10.4 mph - N/A   Mostly Cloudy
2:55 PM 37.6 °F 31.0 °F 27.5 °F 67% 30.23 in 10.0 mi WNW 9.2 mph 16.1 mph N/A   Overcast
3:16 PM 37.4 °F 29.8 °F 27.3 °F 67% 30.24 in 10.0 mi WNW 11.5 mph - N/A   Overcast
3:35 PM 37.9 °F 29.6 °F 27.0 °F 65% 30.24 in 10.0 mi West 13.8 mph 17.3 mph N/A   Overcast
3:56 PM 36.7 °F 28.9 °F 28.0 °F 71% 30.25 in 10.0 mi WNW 11.5 mph 16.1 mph N/A   Overcast
4:16 PM 35.8 °F 28.8 °F 27.7 °F 72% 30.25 in 10.0 mi WNW 9.2 mph 16.1 mph N/A   Overcast
4:36 PM 34.7 °F 28.1 °F 28.4 °F 78% 30.26 in 10.0 mi WNW 8.1 mph 16.1 mph N/A   Overcast
4:56 PM 34.0 °F 27.2 °F 28.2 °F 79% 30.26 in 10.0 mi WNW 8.1 mph - N/A   Overcast
5:16 PM 33.8 °F 27.7 °F 28.2 °F 80% 30.27 in 10.0 mi NW 6.9 mph - N/A   Overcast
5:36 PM 33.8 °F 27.0 °F 28.4 °F 81% 30.27 in 10.0 mi NW 8.1 mph - N/A   Overcast
5:55 PM 33.3 °F 27.9 °F 28.2 °F 82% 30.28 in 10.0 mi NW 5.8 mph - N/A   Overcast
6:16 PM 33.1 °F 26.1 °F 28.6 °F 84% 30.28 in 7.0 mi NW 8.1 mph - N/A Rain Rain
6:36 PM 32.5 °F 28.1 °F 28.9 °F 87% 30.28 in 10.0 mi North 4.6 mph - N/A   Overcast
6:55 PM 32.4 °F 26.9 °F 28.9 °F 87% 30.28 in 10.0 mi NNW 5.8 mph - N/A   Overcast
8:36 PM 32.0 °F 24.8 °F 27.7 °F 84% 30.30 in 10.0 mi NNW 8.1 mph - N/A   Overcast
8:55 PM 31.8 °F 24.6 °F 27.3 °F 83% 30.31 in 10.0 mi NNW 8.1 mph - N/A   Overcast
9:16 PM 31.3 °F 23.3 °F 26.6 °F 83% 30.31 in 10.0 mi NNW 9.2 mph - N/A   Overcast
9:36 PM 31.5 °F 22.9 °F 26.1 °F 80% 30.30 in 10.0 mi NNW 10.4 mph - N/A   Overcast
9:55 PM 31.1 °F 23.1 °F 26.1 °F 82% 30.31 in 10.0 mi NNW 9.2 mph - N/A   Overcast
10:16 PM 31.1 °F 24.5 °F 26.1 °F 82% 30.31 in 10.0 mi NNW 6.9 mph - N/A   Overcast
10:36 PM 30.6 °F 23.1 °F 25.2 °F 80% 30.32 in 10.0 mi NW 8.1 mph - N/A   Overcast
10:56 PM 30.2 °F 23.4 °F 25.3 °F 82% 30.31 in 10.0 mi NNW 6.9 mph - N/A   Overcast
11:16 PM 29.3 °F 21.5 °F 24.4 °F 82% 30.31 in 10.0 mi NNW 8.1 mph - N/A   Overcast
11:36 PM 29.5 °F 23.4 °F 24.8 °F 83% 30.32 in 10.0 mi NNW 5.8 mph - N/A   Overcast
11:55 PM 29.3 °F 24.3 °F 24.8 °F 83% 30.32 in 10.0 mi NW 4.6 mph - N/A   Overcast